FW6237 Weather Reports


time (UTC)temp
C
wind
direction
speed
KPH
gust
KPH
rain 1hr
cm
rain 24hr
cm
rain mn
cm
humidity
%
barometer
mb
20260505070049 3 217 1.6 6.4 0.00 1.19 0.00 88 1007.5
20260505064541 5 275 6.4 20.9 0.00 1.22 0.00 89 1007.2
20260505063058 4 292 1.6 12.9 0.00 1.22 0.00 89 1006.8
20260505061612 3 279 1.6 12.9 0.00 1.22 0.00 89 1006.7
20260505060051 4 282 1.6 19.3 0.00 1.22 0.00 89 1006.2
20260505054548 3 298 1.6 12.9 0.00 1.30 0.00 89 1006.0
20260505053046 4 0 1.6 12.9 0.00 1.30 0.00 89 1005.6
20260505051606 5 315 1.6 12.9 0.00 1.30 0.00 88 1005.4
20260505041548 5 0 4.8 16.1 0.00 1.35 0.00 88 1004.4
20260505040046 6 279 6.4 20.9 0.00 1.35 0.00 88 1004.2
20260505034541 6 0 4.8 17.7 0.00 1.40 0.00 88 1004.0
20260505033046 6 279 3.2 17.7 0.03 1.40 0.00 88 1003.8
20260505031550 6 245 3.2 9.7 0.03 1.40 0.00 88 1003.7
20260505030045 6 275 3.2 14.5 0.03 1.40 0.00 87 1003.4
20260505024547 7 295 4.8 17.7 0.00 1.45 1.37 87 1003.6
20260505023041 7 0 4.8 16.1 0.00 1.42 1.35 86 1003.2
20260505021552 7 241 6.4 16.1 0.00 1.42 1.35 84 1003.2
20260505020045 7 283 4.8 22.5 0.00 1.42 1.35 84 1003.1
20260505014544 6 308 3.2 14.5 0.00 1.65 1.35 83 1002.6
20260505013042 6 283 3.2 14.5 0.00 1.65 1.35 81 1002.6
20260505011541 6 306 3.2 16.1 0.00 1.65 1.35 81 1002.6
20260505010048 6 260 6.4 19.3 0.00 1.65 1.35 82 1002.6
20260505004544 6 322 3.2 11.3 0.00 1.93 1.35 81 1002.4
20260505003042 6 317 3.2 12.9 0.00 1.93 1.35 78 1002.3
20260505001545 6 304 4.8 14.5 0.00 1.93 1.35 80 1002.1
20260505000047 3 0 3.2 6.4 0.00 1.93 1.35 87 1002.2
20260504234540 3 298 1.6 9.7 0.00 2.21 1.35 86 1001.7
20260504233103 5 306 1.6 8.0 0.00 2.21 1.35 83 1001.4
20260504231546 6 259 3.2 14.5 0.00 2.21 1.35 78 1001.1
20260504230053 7 222 3.2 14.5 0.00 2.21 1.35 74 1001.0
20260504224544 7 283 1.6 20.9 0.00 2.51 1.35 75 1000.7
20260504223041 7 270 1.6 9.7 0.00 2.51 1.35 72 1000.6
20260504221544 9 208 3.2 20.9 0.00 2.51 1.35 66 1000.5
20260504220045 10 221 4.8 20.9 0.00 2.51 1.35 60 1000.3
20260504214545 10 219 11.3 24.1 0.00 2.82 1.35 59 1000.0
20260504213045 10 197 8.0 27.4 0.00 2.82 1.35 61 1000.0
20260504211541 10 235 8.0 25.7 0.00 2.82 1.35 64 1000.1
20260504210105 9 285 3.2 17.7 0.00 2.82 1.35 69 1000.0
20260504204548 9 251 3.2 25.7 0.00 2.84 1.35 70 999.7
20260504203101 10 270 9.7 25.7 0.00 2.84 1.35 69 999.5
20260504201546 10 231 9.7 27.4 0.00 2.84 1.35 69 999.2
20260504200042 10 306 6.4 24.1 0.00 2.84 1.35 73 998.9
20260504194540 9 285 9.7 20.9 0.00 3.05 1.35 75 998.5
20260504193046 8 295 8.0 17.7 0.00 3.05 1.35 79 998.3
20260504191542 8 325 6.4 27.4 0.00 3.05 1.35 81 998.1
20260504190106 8 310 8.0 27.4 0.00 3.05 1.35 82 998.0
20260504184545 7 246 4.8 22.5 0.00 3.05 1.35 84 997.9
20260504183048 7 231 8.0 19.3 0.00 3.05 1.35 86 997.8
20260504181550 6 260 9.7 24.1 0.03 3.05 1.35 87 997.4
20260504180045 6 225 8.0 22.5 0.05 3.05 1.35 86 997.1
20260504174546 6 237 8.0 20.9 0.05 3.02 1.32 88 996.8
20260504173042 6 320 4.8 22.5 0.08 3.02 1.32 88 996.5
20260504171542 6 257 4.8 29.0 0.08 3.00 1.30 88 996.1
20260504081545 2 314 1.6 9.7 0.03 1.96 0.25 93 976.0